Tracking 17141 objects as of 6-July-2015
HD Live streaming from Space Station

CZ-4 DEB

Track CZ-4 DEB now!
10-day predictions
CZ-4 DEB is classified as:


NORAD ID: 26259
Int'l Code: 1999-057EV
Perigee: 671.4 km
Apogee: 806.2 km
Inclination: 98.5 °
Period: 99.4 minutes
Semi major axis: 7109 km
RCS: 0.031 m2 (small)
Launch date: October 14, 1999
Source: People's Republic of China (PRC)

Note: This is SATELLITE DEBRIS
Your satellite tracking list
Your tracking list is empty





NASA's NSSDC Master Catalog

Two Line Element Set (TLE):
1 26259U 99057EV  15186.50457472  .00002734  00000-0  70548-3 0  9992
2 26259 098.4876 150.6886 0094750 038.4223 054.8065 14.48165290802647

Source of the keplerian elements: AFSPC

N2YO: 207